TimeMDT,TemperatureF,Dew PointF,Humidity,Sea Level PressureIn,VisibilityMPH,Wind Direction,Wind SpeedMPH,Gust SpeedMPH,PrecipitationIn,Events,Conditions,WindDirDegrees,DateUTC
12:48 AM,57.9,57.0,97,29.99,-9999.0,WNW,3.5,-,N/A,,Unknown,290,2013-07-09 06:48:00
1:48 AM,57.0,55.9,96,29.99,-9999.0,WNW,4.6,-,N/A,,Unknown,290,2013-07-09 07:48:00
2:48 AM,55.9,55.0,97,30.00,-9999.0,West,5.8,-,N/A,,Unknown,270,2013-07-09 08:48:00
3:48 AM,55.9,55.0,97,30.03,-9999.0,West,6.9,-,N/A,,Unknown,270,2013-07-09 09:48:00
4:48 AM,57.0,55.9,96,30.03,-9999.0,WNW,8.1,-,N/A,,Unknown,290,2013-07-09 10:48:00
5:48 AM,57.0,55.0,93,30.04,-9999.0,WNW,5.8,-,N/A,,Unknown,290,2013-07-09 11:48:00
6:48 AM,57.9,55.9,93,30.09,-9999.0,WNW,10.4,-,N/A,,Unknown,290,2013-07-09 12:48:00
7:48 AM,61.0,55.0,81,30.11,-9999.0,NW,10.4,-,N/A,,Unknown,310,2013-07-09 13:48:00
8:48 AM,64.0,54.0,70,30.12,-9999.0,NW,17.3,-,N/A,,Unknown,310,2013-07-09 14:48:00
9:48 AM,66.9,55.0,66,30.13,-9999.0,NW,15.0,-,N/A,,Unknown,310,2013-07-09 15:48:00
10:48 AM,68.0,55.0,63,30.14,-9999.0,NNW,17.3,-,N/A,,Unknown,330,2013-07-09 16:48:00
11:48 AM,70.0,55.0,59,30.14,-9999.0,NW,15.0,21.9,N/A,,Unknown,320,2013-07-09 17:48:00
12:48 PM,72.0,55.0,55,30.15,-9999.0,NNW,15.0,-,N/A,,Unknown,340,2013-07-09 18:48:00
1:48 PM,73.9,54.0,50,30.15,-9999.0,NNW,12.7,-,N/A,,Unknown,330,2013-07-09 19:48:00
2:48 PM,73.0,54.0,51,30.15,-9999.0,NNW,12.7,-,N/A,,Unknown,340,2013-07-09 20:48:00
3:48 PM,73.0,53.1,49,30.14,-9999.0,NNW,10.4,16.1,N/A,,Unknown,340,2013-07-09 21:48:00
4:48 PM,75.0,51.1,43,30.14,-9999.0,North,12.7,-,N/A,,Unknown,350,2013-07-09 22:48:00
5:48 PM,75.9,51.1,42,30.13,-9999.0,NW,3.5,-,N/A,,Unknown,310,2013-07-09 23:48:00
6:48 PM,75.0,50.0,41,30.12,-9999.0,Calm,Calm,-,N/A,,Unknown,0,2013-07-10 00:48:00
7:48 PM,73.0,51.1,46,30.11,-9999.0,East,5.8,-,N/A,,Unknown,90,2013-07-10 01:48:00
8:48 PM,69.1,55.0,61,30.12,-9999.0,East,4.6,-,N/A,,Unknown,90,2013-07-10 02:48:00
9:48 PM,64.9,55.0,70,30.13,-9999.0,ESE,3.5,-,N/A,,Unknown,110,2013-07-10 03:48:00
10:48 PM,61.0,53.1,75,30.13,-9999.0,Calm,Calm,-,N/A,,Unknown,0,2013-07-10 04:48:00
11:48 PM,60.1,52.0,75,30.13,-9999.0,Calm,Calm,-,N/A,,Unknown,0,2013-07-10 05:48:00